Meteopurmerend
purmerend
Purmerend - Baaienwijk



My webcam  My webcam


waarschuwing voor Onweer Meer informatie blitzortung!


Regen radar Meer informatie rain snow radar


Bezoek onze andere website:

CandyAppleRed WebdesignWebdesign Purmerend Candy Apple Red

MeteopurmerendBlog

Template documentation
and downloads



Onweer van: 19-06-2019 18:00 tot: 23:00 waarschuwing voor: Onweer niveau: Geel info button
Enkele onweersbuien, mogelijk met hagel en windstoten tot ca. 75 km/uur.Verkeer en buitenactiviteiten kunnen hinder ondervinden.Mijd open water en open gebied, schuil niet onder bomen.Volg weerberichten en waarschuwingen.

15 daagse weersverwachting Almere Stad (NL)

  • Overzicht
  • Per uur
  • 15 dagen
  • Extra
  • Vergelijk
  • Kaarten
  • Dagkaart
  • Meer »
  • Info
  • Statistieken
  • Directe link
    Temp 6h Neerslag Wind  
 05:18     22:04    Daglengte: 16:46 Morgen
02:00
16°
2.8 mm
4
08:00
16°
9.1 mm
3
14:00
18°
16.8 mm
5
20:00
17°
9.6 mm
5
 05:18     22:05    Daglengte: 16:47 Vrijdag 21 Jun
02:00
14°
 
3
08:00
15°
 
4
14:00
18°
6.2 mm
4
20:00
17°
 
4
 05:19     22:05    Daglengte: 16:46 Zaterdag 22 Jun
02:00
13°
 
2
08:00
13°
 
3
14:00
19°
 
4
Locatie info
Region: Flevoland
Latitude: 52.3702°N
Longitude: 5.2141°E
-3 masl
Temp/Neerslag /Baro Onweer/Dauwpunt
    Temp Baro 1h Neerslag Dauwpunt Wind UV Bewolking  
 05:18     22:04    Daglengte: 16:46 Vandaag
21:00
19°
1006.5 hPa
48%
16.9°
3
Windvlaag: 0.5 m/s
82%
22:00
18°
1006.8 hPa 2.8 mm
82%
16.5°
3
Windvlaag: 0.6 m/s
75% warningclass
23:00
18°
1007.1 hPa
26%
15.8°
4
Windvlaag: 0.9 m/s
65%
 05:18     22:04    Daglengte: 16:46 Morgen
00:00
17°
1007.3 hPa
16%
15.6°
4
Windvlaag: 1.6 m/s
72%
01:00
16°
1007.3 hPa
23%
15.2°
4
Windvlaag: 1.8 m/s
86%
02:00
16°
1007.6 hPa
71%
15.1°
4
Windvlaag: 2.2 m/s
83%
03:00
16°
1007.9 hPa
69%
14.9°
4
Windvlaag: 2.2 m/s
78%
04:00
16°
1008.3 hPa
31%
14.7°
3
Windvlaag: 2.2 m/s
81%
05:00
15°
1008.5 hPa
40%
14.4°
3
Windvlaag: 2.2 m/s
73%
06:00
15°
1008.7 hPa 2.9 mm
76%
14.2°
4
Windvlaag: 2.7 m/s
76%
07:00
15°
1009.0 hPa 2.9 mm
26%
14.2°
3
Windvlaag: 2.7 m/s
67%
08:00
16°
1009.5 hPa 3.3 mm
67%
14.2°
3
Windvlaag: 2.6 m/s
55%
09:00
16°
1009.8 hPa 2.5 mm
74%
14.1°
3
Windvlaag: 2.1 m/s
78%
10:00
16°
1010.0 hPa 2.3 mm
72%
13.5°
2
Windvlaag: 1 m/s
78%
11:00
17°
1010.4 hPa 3.0 mm
78%
14.0°
2
Windvlaag: 0.8 m/s
72%
12:00
18°
1010.6 hPa 2.3 mm
74%
14.0°
3
Windvlaag: 1.7 m/s
79%
13:00
18°
1010.9 hPa 2.7 mm
81%
14.1°
4
Windvlaag: 2.1 m/s
56%
14:00
18°
1011.1 hPa 3.9 mm
82%
15.0°
5
Windvlaag: 2 m/s
62%
15:00
18°
1011.3 hPa 3.4 mm
82%
14.5°
5
Windvlaag: 2 m/s
43%
16:00
18°
1011.5 hPa 3.1 mm
82%
14.2°
5
Windvlaag: 0.8 m/s
37%
17:00
18°
1011.8 hPa 3.1 mm
82%
12.9°
6
Windvlaag: 0.8 m/s
33%
18:00
18°
1012.1 hPa
73%
12.2°
6
Windvlaag: 0.8 m/s
20%
19:00
18°
1012.6 hPa
59%
11.8°
5
Windvlaag: 0.7 m/s
6%
20:00
17°
1013.1 hPa
61%
11.7°
5
Windvlaag: 1 m/s
6%
21:00
17°
1013.6 hPa
60%
11.8°
5
Windvlaag: 1.1 m/s
4%
22:00
16°
1014.2 hPa
19%
12.1°
4
Windvlaag: 1 m/s
6%
23:00
15°
1014.6 hPa
14%
12.3°
3
Windvlaag: 1.2 m/s
4%
 05:18     22:05    Daglengte: 16:47 Vrijdag 21 Jun
00:00
15°
1014.9 hPa
14%
12.3°
3
Windvlaag: 1.3 m/s
4%
01:00
14°
1015.1 hPa
14%
12.4°
3
Windvlaag: 2.5 m/s
4%
02:00
14°
1015.1 hPa
14%
12.7°
3
Windvlaag: 2.8 m/s
15%
03:00
14°
1015.2 hPa
14%
12.9°
3
Windvlaag: 3.1 m/s
27%
04:00
14°
1015.3 hPa
14%
13.0°
3
Windvlaag: 2 m/s
13%
05:00
14°
1015.6 hPa
15%
12.7°
3
Windvlaag: 1.6 m/s
11%
06:00
13°
1016.0 hPa
17%
12.5°
3
Windvlaag: 1.1 m/s
9%
07:00
14°
1016.5 hPa
18%
12.8°
3
Windvlaag: 1.8 m/s
15%
08:00
15°
1016.9 hPa
19%
12.9°
4
Windvlaag: 1.6 m/s
15%
09:00
16°
1017.4 hPa 3.0 mm
63%
12.6°
4
Windvlaag: 0.6 m/s
8%
10:00
16°
1017.8 hPa
69%
12.2°
4
Windvlaag: -0.2 m/s
16%
11:00
17°
1018.1 hPa 3.2 mm
66%
12.4°
4
Windvlaag: -0.1 m/s
18%
12:00
18°
1018.3 hPa
61%
12.3°
3
Windvlaag: 0.1 m/s
21%
13:00
18°
1018.6 hPa
60%
12.6°
4
Windvlaag: -0 m/s
22%
14:00
18°
1018.6 hPa
52%
11.9°
4
Windvlaag: -0.2 m/s
16%
15:00
18°
1018.9 hPa
18%
11.2°
5
Windvlaag: -0.4 m/s
12%
16:00
18°
1019.3 hPa
17%
10.7°
5
Windvlaag: -0.4 m/s
9%
17:00
18°
1019.9 hPa
22%
10.6°
5
Windvlaag: -0.4 m/s
15%
18:00
18°
1020.2 hPa
21%
9.4°
5
Windvlaag: -0.8 m/s
13%
19:00
17°
1020.6 hPa
21%
8.2°
5
Windvlaag: -1.5 m/s
8%
20:00
17°
1021.1 hPa
21%
8.1°
4
Windvlaag: -1.9 m/s
3%
21:00
16°
1021.6 hPa
21%
8.8°
3
Windvlaag: -1.9 m/s
1%
22:00
14°
1022.1 hPa
21%
9.7°
3
Windvlaag: -1.6 m/s
1%
23:00
14°
1022.6 hPa
21%
10.0°
3
Windvlaag: -1.6 m/s
1%
 05:19     22:05    Daglengte: 16:46 Zaterdag 22 Jun
00:00
13°
1023.0 hPa
21%
10.1°
3
Windvlaag: -1.7 m/s
0%
01:00
13°
1023.2 hPa
21%
10.1°
2
Windvlaag: -1.7 m/s
0%
02:00
13°
1023.3 hPa
21%
10.2°
2
Windvlaag: -1.7 m/s
0%
03:00
12°
1023.2 hPa
21%
10.0°
2
Windvlaag: -1.6 m/s
1%
04:00
12°
1023.2 hPa
21%
10.1°
2
Windvlaag: -1.3 m/s
0%
05:00
11°
1023.3 hPa
21%
10.3°
2
Windvlaag: -0.9 m/s
1%
06:00
11°
1023.7 hPa
21%
10.3°
3
Windvlaag: -0.3 m/s
2%
07:00
12°
1023.9 hPa
21%
9.8°
3
Windvlaag: 0.2 m/s
6%
08:00
13°
1024.3 hPa
21%
9.9°
3
Windvlaag: -0 m/s
5%
09:00
15°
1024.2 hPa
22%
10.0°
3
Windvlaag: -0.9 m/s
15%
10:00
15°
1024.0 hPa
21%
9.8°
3
Windvlaag: -1.5 m/s
11%
11:00
16°
1024.0 hPa
21%
9.7°
3
Windvlaag: -2.6 m/s
8%
12:00
17°
1023.8 hPa
21%
9.5°
3
Windvlaag: -3.1 m/s
33%
13:00
18°
1023.7 hPa
21%
9.3°
4
Windvlaag: -3.1 m/s
39%
14:00
19°
1023.6 hPa
21%
9.0°
4
Windvlaag: -1.5 m/s
46%
15:00
19°
1023.2 hPa
21%
9.6°
4
Windvlaag: 4.3 m/s
42%
16:00
19°
1022.9 hPa
21%
9.9°
4
Windvlaag: 4.5 m/s
23%
17:00
20°
1022.5 hPa
21%
10.3°
4
Windvlaag: 4.5 m/s
22%
18:00
20°
1022.2 hPa
21%
10.7°
4
Windvlaag: 5.6 m/s
23%
19:00
20°
1022.0 hPa
21%
10.8°
4
Windvlaag: 5 m/s
15%
20:00
20°
1021.8 hPa
21%
11.0°
4
Windvlaag: 0.9 m/s
6%
Temp/Neerslag /Baro Onweer/Dauwpunt
    Temp Baro Neerslag Dauwpunt Wind Bewolking  
 05:18     22:04    Daglengte: 16:46 Vandaag
23:00
18°
1007.1 hPa 2.8 mm 15.8°
4
65%
 05:18     22:04    Daglengte: 16:46 Morgen
02:00
16°
1007.6 hPa   15.1°
4
83%
05:00
15°
1008.5 hPa   14.4°
3
73%
08:00
16°
1009.5 hPa 9.1 mm 14.2°
3
55%
11:00
17°
1010.4 hPa 7.8 mm 14.0°
2
72%
14:00
18°
1011.1 hPa 9.0 mm 15.0°
5
62%
17:00
18°
1011.8 hPa 9.6 mm 12.9°
6
33%
20:00
17°
1013.1 hPa   11.7°
5
6%
23:00
15°
1014.6 hPa   12.3°
3
4%
 05:18     22:05    Daglengte: 16:47 Vrijdag 21 Jun
02:00
14°
1015.1 hPa   12.7°
3
15%
05:00
14°
1015.6 hPa   12.7°
3
11%
08:00
15°
1016.9 hPa   12.9°
4
15%
11:00
17°
1018.1 hPa 6.2 mm 12.4°
4
18%
14:00
18°
1018.6 hPa   11.9°
4
16%
17:00
18°
1019.9 hPa   10.6°
5
15%
20:00
17°
1021.1 hPa   8.1°
4
3%
23:00
14°
1022.6 hPa   10.0°
3
1%
 05:19     22:05    Daglengte: 16:46 Zaterdag 22 Jun
02:00
13°
1023.3 hPa   10.2°
2
0%
05:00
11°
1023.3 hPa   10.3°
2
1%
08:00
13°
1024.3 hPa   9.9°
3
5%
11:00
16°
1024.0 hPa   9.7°
3
8%
14:00
19°
1023.6 hPa   9.0°
4
46%
17:00
20°
1022.5 hPa   10.3°
4
22%
20:00
20°
1021.8 hPa   11.0°
4
6%
23:00
16°
1022.9 hPa 6.4 mm 10.9°
5
3%
 05:19     22:05    Daglengte: 16:46 Zondag 23 Jun
02:00
14°
1023.3 hPa 6.4 mm 10.5°
5
4%
05:00
15°
1023.1 hPa 6.4 mm 11.0°
4
2%
08:00
15°
1023.0 hPa 6.4 mm 11.4°
4
0%
11:00
19°
1022.7 hPa 6.4 mm 12.8°
4
0%
14:00
23°
1022.4 hPa 6.4 mm 13.6°
4
0%
17:00
23°
1021.7 hPa 6.4 mm 15.1°
4
3%
20:00
23°
1021.0 hPa 6.4 mm 16.6°
3
5%
23:00
21°
1021.9 hPa 6.4 mm 13.9°
5
3%
 05:19     22:05    Daglengte: 16:46 Maandag 24 Jun
02:00
19°
1022.7 hPa 6.4 mm 11.3°
6
0%
05:00
18°
1022.5 hPa 6.4 mm 11.8°
5
1%
08:00
18°
1022.4 hPa 6.4 mm 12.1°
5
2%
11:00
22°
1022.2 hPa 6.4 mm 13.8°
5
44%
14:00
25°
1022.0 hPa 6.4 mm 15.2°
4
85%
17:00
25°
1021.2 hPa 6.4 mm 16.0°
4
85%
20:00
25°
1020.4 hPa 6.4 mm 17.0°
4
85%
23:00
23°
1021.3 hPa 6.4 mm 14.8°
5
81%
 05:20     22:05    Daglengte: 16:45 Dinsdag 25 Jun
02:00
21°
1022.1 hPa 6.4 mm 12.8°
5
76%
05:00
21°
1021.9 hPa 6.4 mm 13.1°
5
39%
08:00
20°
1021.7 hPa 6.4 mm 13.3°
4
2%
11:00
24°
1021.5 hPa 6.4 mm 14.9°
4
26%
14:00
27°
1021.2 hPa 6.4 mm 16.1°
5
50%
17:00
28°
1020.6 hPa 6.4 mm 17.0°
4
66%
20:00
27°
1019.9 hPa 6.4 mm 18.1°
3
82%
23:00
25°
1020.3 hPa 6.4 mm 16.4°
4
54%
 05:20     22:05    Daglengte: 16:45 Woensdag 26 Jun
02:00
22°
1020.6 hPa 6.4 mm 14.7°
4
26%
05:00
22°
1020.3 hPa 6.4 mm 15.2°
4
49%
08:00
22°
1020.0 hPa 6.4 mm 15.7°
4
72%
11:00
26°
1019.5 hPa 6.4 mm 16.6°
5
37%
14:00
29°
1019.1 hPa 6.4 mm 16.9°
5
1%
17:00
30°
1018.0 hPa 6.4 mm 17.5°
4
3%
20:00
30°
1017.0 hPa 12.9 mm 18.3°
3
5%
 05:21     22:05    Daglengte: 16:44 Donderdag 27 Jun
02:00
23°
1016.2 hPa 12.9 mm 16.6°
3
0%
08:00
24°
1015.0 hPa 12.9 mm 18.7°
3
0%
14:00
32°
1014.6 hPa 12.9 mm 21.8°
1
0%
20:00
28°
1012.8 hPa 12.9 mm 21.1°
2
0%
 05:21     22:05    Daglengte: 16:44 Vrijdag 28 Jun
02:00
24°
1012.5 hPa 13.4 mm 21.2°
3
0%
08:00
22°
1013.6 hPa 15.8 mm 18.8°
5
0%
14:00
25°
1015.4 hPa 16.0 mm 18.8°
5
39%
20:00
22°
1014.4 hPa 16.3 mm 17.3°
3
53%
 05:22     22:05    Daglengte: 16:43 Zaterdag 29 Jun
02:00
18°
1013.9 hPa 16.3 mm 16.8°
3
67%
08:00
17°
1014.0 hPa 16.4 mm 14.1°
4
1%
14:00
22°
1015.6 hPa   13.2°
1
21%
20:00
21°
1014.8 hPa   13.8°
1
22%
 05:23     22:04    Daglengte: 16:41 Zondag 30 Jun
02:00
16°
1014.8 hPa 0.3 mm 12.7°
1
27%
08:00
17°
1014.1 hPa 0.6 mm 13.2°
1
24%
14:00
22°
1014.1 hPa 0.7 mm 14.4°
3
36%
20:00
20°
1014.0 hPa 0.8 mm 14.1°
3
33%
 05:23     22:04    Daglengte: 16:41 Maandag 01 Jul
02:00
15°
1014.6 hPa 1.0 mm 12.6°
1
27%
08:00
16°
1014.2 hPa 1.6 mm 13.2°
1
38%
14:00
20°
1014.0 hPa 0.6 mm 13.3°
3
44%
20:00
19°
1013.1 hPa 0.9 mm 13.5°
3
31%
 05:24     22:04    Daglengte: 16:40 Dinsdag 02 Jul
02:00
15°
1013.3 hPa 0.7 mm 12.5°
3
23%
08:00
16°
1013.0 hPa 0.3 mm 12.8°
3
29%
14:00
19°
1013.3 hPa 0.7 mm 13.0°
4
47%
20:00
19°
1013.1 hPa 0.5 mm 13.2°
3
38%
 05:25     22:03    Daglengte: 16:38 Woensdag 03 Jul
02:00
15°
1013.3 hPa 0.7 mm 12.5°
2
29%
08:00
16°
1013.1 hPa 0.4 mm 13.2°
2
35%
14:00
19°
1013.5 hPa 1.4 mm 13.7°
4
46%
20:00
18°
1013.9 hPa 0.8 mm 13.2°
3
41%
 05:26     22:03    Daglengte: 16:37 Donderdag 04 Jul
02:00
15°
1014.6 hPa 0.5 mm 12.4°
1
25%
08:00
16°
1014.9 hPa 0.8 mm 12.9°
2
33%
14:00
20°
1015.4 hPa 0.6 mm 12.8°
3
42%
20:00
19°
1015.3 hPa 0.8 mm 12.7°
3
31%
  CAPE Lifted Index Hail Supercell Tornado SRH 3km CL BTM PRES CL TOP PRES Swiss DWD icon SMHI TS
 05:18     22:04    Daglengte: 16:46 Vandaag
21:00 427 J/kg -2.4 K 0 % 0 % 0 % 0 m²/s² 0 0 -2.31 3
22:00 891 J/kg -3.3 K 0 % 0 % 0 % 0 m²/s² 0 0 -2.37 61
23:00 825 J/kg -3.0 K 0 % 0 % 0 % 0 m²/s² 0 0 -2.01 3
 05:18     22:04    Daglengte: 16:46 Morgen
00:00 768 J/kg -2.8 K 0 % 0 % 0 % 0 m²/s² 0 0 -1.75 3
01:00 16 J/kg -0.3 K 0 % 0 % 0 % 0 m²/s² 0 0 1.17 3
02:00 218 J/kg -1.9 K 0 % 0 % 0 % 0 m²/s² 0 0 -1 3
03:00 433 J/kg -1.9 K 0 % 0 % 0 % 0 m²/s² 0 0 -1 3
04:00 60 J/kg -0.7 K 0 % 0 % 0 % 0 m²/s² 0 0 -0.19 3
05:00 2 J/kg -0.2 K 0 % 0 % 0 % 0 m²/s² 0 0 0.28 3
06:00 4 J/kg -0.2 K 0 % 0 % 0 % 0 m²/s² 0 0 0.31 3
07:00 6 J/kg 0.1 K 0 % 0 % 0 % 0 m²/s² 0 0 1.09 3
08:00 11 J/kg 0.6 K 0 % 0 % 0 % 0 m²/s² 0 0 1.53 3
09:00 48 J/kg 0.2 K 0 % 0 % 0 % 0 m²/s² 0 0 0.98 61
10:00 70 J/kg 0.2 K 0 % 0 % 0 % 0 m²/s² 0 0 0.95 3
11:00 68 J/kg 0.4 K 0 % 0 % 0 % 0 m²/s² 0 0 1.78 3
12:00 166 J/kg -0.1 K 0 % 0 % 0 % 0 m²/s² 0 0 1.73 3
13:00 284 J/kg -0.8 K 0 % 0 % 0 % 0 m²/s² 0 0 1.3 3
14:00 274 J/kg -0.4 K 0 % 0 % 0 % 0 m²/s² 0 0 2.09 80
15:00 284 J/kg -0.1 K 0 % 0 % 0 % 0 m²/s² 0 0 2.69 80
16:00 271 J/kg -0.1 K 0 % 0 % 0 % 0 m²/s² 0 0 3.29 80
17:00 253 J/kg 0.1 K 0 % 0 % 0 % 0 m²/s² 0 0 3.76 80
18:00 90 J/kg 1.5 K 0 % 0 % 0 % 0 m²/s² 0 0 5.88 2
19:00 0 J/kg 3.1 K 0 % 0 % 0 % 0 m²/s² 0 0 8.77 2
20:00 0 J/kg 4.0 K 0 % 0 % 0 % 0 m²/s² 0 0 10.18 1
21:00 0 J/kg 4.4 K 0 % 0 % 0 % 0 m²/s² 0 0 10.07 0
22:00 0 J/kg 5.2 K 0 % 0 % 0 % 0 m²/s² 0 0 9.25 0
23:00 0 J/kg 5.5 K 0 % 0 % 0 % 0 m²/s² 0 0 8.8 0
 05:18     22:05    Daglengte: 16:47 Vrijdag 21 Jun
00:00 0 J/kg 4.4 K 0 % 0 % 0 % 0 m²/s² 0 0 7.52 0
01:00 7 J/kg 3.8 K 0 % 0 % 0 % 0 m²/s² 0 0 7.1 0
02:00 0 J/kg 3.0 K 0 % 0 % 0 % 0 m²/s² 0 0 5.7 2
03:00 0 J/kg 2.7 K 0 % 0 % 0 % 0 m²/s² 0 0 5.55 3
04:00 0 J/kg 2.4 K 0 % 0 % 0 % 0 m²/s² 0 0 5.1 1
05:00 0 J/kg 2.0 K 0 % 0 % 0 % 0 m²/s² 0 0 4.34 1
06:00 0 J/kg 2.0 K 0 % 0 % 0 % 0 m²/s² 0 0 4.34 0
07:00 0 J/kg 2.8 K 0 % 0 % 0 % 0 m²/s² 0 0 5.74 0
08:00 28 J/kg 3.1 K 0 % 0 % 0 % 0 m²/s² 0 0 6.1 2
09:00 145 J/kg 2.4 K 0 % 0 % 0 % 0 m²/s² 0 0 5.85 1
10:00 191 J/kg 2.2 K 0 % 0 % 0 % 0 m²/s² 0 0 6.22 2
11:00 187 J/kg 2.6 K 0 % 0 % 0 % 0 m²/s² 0 0 7.31 2
12:00 118 J/kg 3.7 K 0 % 0 % 0 % 0 m²/s² 0 0 8.77 2
13:00 113 J/kg 4.1 K 0 % 0 % 0 % 0 m²/s² 0 0 10.25 2
14:00 69 J/kg 5.4 K 0 % 0 % 0 % 0 m²/s² 0 0 12.69 0
15:00 43 J/kg 6.3 K 0 % 0 % 0 % 0 m²/s² 0 0 13.35 1
16:00 26 J/kg 7.2 K 0 % 0 % 0 % 0 m²/s² 0 0 14.07 0
17:00 45 J/kg 6.9 K 0 % 0 % 0 % 0 m²/s² 0 0 13.56 0
18:00 16 J/kg 7.3 K 0 % 0 % 0 % 0 m²/s² 0 0 13.6 0
19:00 0 J/kg 8.9 K 0 % 0 % 0 % 0 m²/s² 0 0 15.02 0
20:00 0 J/kg 10.1 K 0 % 0 % 0 % 0 m²/s² 0 0 16.04 0
21:00 0 J/kg 10.3 K 0 % 0 % 0 % 0 m²/s² 0 0 16.27 0
22:00 0 J/kg 10.6 K 0 % 0 % 0 % 0 m²/s² 0 0 16.57 0
23:00 0 J/kg 10.9 K 0 % 0 % 0 % 0 m²/s² 0 0 16.87 0
 05:19     22:05    Daglengte: 16:46 Zaterdag 22 Jun
00:00 0 J/kg 10.7 K 0 % 0 % 0 % 0 m²/s² 0 0 16.85 0
01:00 0 J/kg 10.6 K 0 % 0 % 0 % 0 m²/s² 0 0 16.75 0
02:00 0 J/kg 10.8 K 0 % 0 % 0 % 0 m²/s² 0 0 16.77 0
03:00 0 J/kg 11.0 K 0 % 0 % 0 % 0 m²/s² 0 0 16.97 0
04:00 0 J/kg 10.9 K 0 % 0 % 0 % 0 m²/s² 0 0 17.05 0
05:00 0 J/kg 10.5 K 0 % 0 % 0 % 0 m²/s² 0 0 16.47 0
06:00 0 J/kg 10.4 K 0 % 0 % 0 % 0 m²/s² 0 0 16.52 0
07:00 0 J/kg 10.5 K 0 % 0 % 0 % 0 m²/s² 0 0 16.8 0
08:00 0 J/kg 10.2 K 0 % 0 % 0 % 0 m²/s² 0 0 16.71 0
09:00 0 J/kg 10.2 K 0 % 0 % 0 % 0 m²/s² 0 0 16.92 0
10:00 0 J/kg 10.0 K 0 % 0 % 0 % 0 m²/s² 0 0 17.17 0
11:00 0 J/kg 9.4 K 0 % 0 % 0 % 0 m²/s² 0 0 16.81 0
12:00 0 J/kg 9.2 K 0 % 0 % 0 % 0 m²/s² 0 0 16.88 0
13:00 0 J/kg 8.5 K 0 % 0 % 0 % 0 m²/s² 0 0 16.48 0
14:00 0 J/kg 7.9 K 0 % 0 % 0 % 0 m²/s² 0 0 16.21 0
15:00 0 J/kg 7.1 K 0 % 0 % 0 % 0 m²/s² 0 0 15.41 0
16:00 0 J/kg 6.7 K 0 % 0 % 0 % 0 m²/s² 0 0 15.01 0
17:00 1 J/kg 6.2 K 0 % 0 % 0 % 0 m²/s² 0 0 14.54 1
18:00 0 J/kg 5.5 K 0 % 0 % 0 % 0 m²/s² 0 0 13.87 2
19:00 0 J/kg 5.4 K 0 % 0 % 0 % 0 m²/s² 0 0 13.47 1
20:00 0 J/kg 5.2 K 0 % 0 % 0 % 0 m²/s² 0 0 12.97 0
Temp Baro Wind Neerslag
  EWN Forecast EWN WRFDA DWD ICON FMI HIRLAM MET Norway GFS
 05:18     22:04    Daglengte: 16:46 Vandaag
23:00 17.7° 1007.1 hPa 3.7 m/s 2.8 mm 18.1° 1006.4 hPa 2.6 m/s 36.1 mm 17.6° 1007.2 hPa 2.6 m/s 3.8 mm 18.7° 1007.1 hPa 2.8 m/s 0.0 mm 17.6° 1006.9 hPa 4.5 m/s 0.4 mm 16.8° 1006.9 hPa 2.6 m/s
 05:18     22:04    Daglengte: 16:46 Morgen
02:00 15.9° 1007.6 hPa 3.8 m/s 0.0 mm 16.9° 1006.1 hPa 3.4 m/s 40.3 mm 16.5° 1007.7 hPa 3.0 m/s 0.0 mm 15.8° 1007.7 hPa 4.4 m/s 0.0 mm 15.8° 1007.4 hPa 3.8 m/s 0.6 mm 15.2° 1007.4 hPa 3.3 m/s
05:00 15.2° 1008.5 hPa 3.3 m/s 0.0 mm 14.9° 1006.8 hPa 3.1 m/s 40.9 mm 15.2° 1008.6 hPa 3.3 m/s 0.0 mm 15.2° 1008.4 hPa 3.4 m/s 0.0 mm 15.0° 1008.7 hPa 3.0 m/s 0.5 mm 13.9° 1007.7 hPa 3.3 m/s
08:00 15.7° 1009.5 hPa 3.0 m/s 9.1 mm 15.6° 1008.0 hPa 2.8 m/s 41.2 mm 15.5° 1009.6 hPa 3.1 m/s 0.0 mm 15.4° 1009.6 hPa 2.9 m/s 0.0 mm 15.7° 1009.6 hPa 2.3 m/s 0.6 mm 15.1° 1009.4 hPa 3.2 m/s
11:00 16.8° 1010.4 hPa 2.2 m/s 7.8 mm 17.2° 1009.2 hPa 3.3 m/s 41.7 mm 15.9° 1010.9 hPa 2.1 m/s 0.5 mm 16.7° 1010.5 hPa 1.4 m/s 0.0 mm 17.3° 1010.2 hPa 2.2 m/s 1.4 mm 16.4° 1010.8 hPa 1.5 m/s
14:00 17.8° 1011.1 hPa 4.8 m/s 9.0 mm 19.1° 1010.3 hPa 4.5 m/s 42.4 mm 17.1° 1011.6 hPa 3.1 m/s 0.9 mm 17.7° 1011.0 hPa 4.2 m/s 0.0 mm 18.2° 1011.1 hPa 5.0 m/s 4.4 mm 18.1° 1012.1 hPa 4.5 m/s
17:00 18.0° 1011.8 hPa 5.6 m/s 9.6 mm 19.7° 1010.9 hPa 5.7 m/s 43.2 mm 16.8° 1012.3 hPa 4.2 m/s 1.9 mm 18.0° 1011.1 hPa 4.8 m/s 0.0 mm 18.5° 1011.9 hPa 5.6 m/s 0.5 mm 18.9° 1012.7 hPa 5.9 m/s
20:00 17.2° 1013.1 hPa 4.9 m/s 0.0 mm 17.9° 1012.1 hPa 4.1 m/s 43.4 mm 17.3° 1013.7 hPa 4.7 m/s 0.1 mm 17.7° 1011.9 hPa 5.7 m/s 0.0 mm 16.8° 1013.3 hPa 4.6 m/s 0.0 mm 16.6° 1014.1 hPa 5.0 m/s
23:00 15.0° 1014.6 hPa 3.0 m/s 0.0 mm 12.7° 1013.3 hPa 2.4 m/s 43.4 mm 15.2° 1014.6 hPa 2.6 m/s 0.0 mm 15.7° 1014.0 hPa 6.0 m/s 0.0 mm 14.4° 1015.0 hPa 2.6 m/s 0.0 mm 13.4° 1015.3 hPa 2.3 m/s
 05:18     22:05    Daglengte: 16:47 Vrijdag 21 Jun
02:00 13.8° 1015.1 hPa 3.1 m/s 0.0 mm 11.5° 1014.0 hPa 2.9 m/s 43.4 mm 13.9° 1015.4 hPa 2.7 m/s 0.0 mm 14.1° 1014.6 hPa 2.7 m/s 0.0 mm 13.6° 1015.5 hPa 3.2 m/s 0.0 mm 12.8° 1015.7 hPa 3.7 m/s
05:00 13.5° 1015.6 hPa 3.4 m/s 0.0 mm 10.7° 1014.3 hPa 3.1 m/s 43.4 mm 14.0° 1016.1 hPa 2.8 m/s 0.0 mm 13.6° 1015.0 hPa 4.0 m/s 0.0 mm 13.0° 1015.8 hPa 3.2 m/s 0.0 mm 12.6° 1016.0 hPa 3.7 m/s
08:00 14.8° 1016.9 hPa 3.6 m/s 0.0 mm 14.4° 1015.0 hPa 3.2 m/s 43.4 mm 15.0° 1017.1 hPa 3.6 m/s 0.0 mm 14.4° 1016.1 hPa 2.8 m/s 0.0 mm 14.8° 1017.2 hPa 3.7 m/s 0.0 mm 15.1° 1017.2 hPa 3.9 m/s
11:00 17.0° 1018.1 hPa 3.7 m/s 6.2 mm 17.0° 1016.0 hPa 2.7 m/s 43.5 mm 17.0° 1018.4 hPa 4.1 m/s 0.9 mm 17.6° 1016.9 hPa 2.8 m/s 0.0 mm 16.6° 1018.4 hPa 3.8 m/s 0.4 mm 17.6° 1018.7 hPa 3.9 m/s
14:00 18.4° 1018.6 hPa 4.3 m/s 0.0 mm 18.7° 1016.5 hPa 3.5 m/s 46.1 mm 18.6° 1018.7 hPa 5.0 m/s 0.2 mm 19.0° 1017.1 hPa 4.1 m/s 0.0 mm 17.4° 1019.0 hPa 3.6 m/s 0.5 mm 18.7° 1019.5 hPa 4.9 m/s
17:00 18.1° 1019.9 hPa 5.0 m/s 0.0 mm 18.7° 1018.1 hPa 4.9 m/s 46.4 mm 18.4° 1020.2 hPa 4.9 m/s 0.0 mm 17.5° 1020.0 hPa 4.3 m/s 0.4 mm 18.3° 1020.5 hPa 4.0 m/s
20:00 16.6° 1021.1 hPa 4.0 m/s 0.0 mm 16.1° 1018.6 hPa 5.4 m/s 46.4 mm 16.8° 1021.0 hPa 3.7 m/s 0.0 mm 16.6° 1021.3 hPa 3.5 m/s 0.0 mm 15.9° 1020.9 hPa 3.8 m/s
23:00 13.5° 1022.6 hPa 2.8 m/s 0.0 mm 12.1° 1020.4 hPa 3.2 m/s 46.4 mm 14.8° 1022.6 hPa 2.4 m/s 0.0 mm 13.2° 1022.8 hPa 2.6 m/s 0.0 mm 12.6° 1022.6 hPa 2.9 m/s
 05:19     22:05    Daglengte: 16:46 Zaterdag 22 Jun
02:00 12.6° 1023.3 hPa 2.3 m/s 0.0 mm 9.6° 1021.1 hPa 2.9 m/s 46.4 mm 14.0° 1023.5 hPa 1.8 m/s 0.0 mm 12.4° 1023.4 hPa 2.0 m/s 0.0 mm 11.4° 1023.0 hPa 2.9 m/s
05:00 11.2° 1023.3 hPa 2.2 m/s 0.0 mm 8.0° 1020.6 hPa 2.9 m/s 46.4 mm 13.3° 1023.6 hPa 1.2 m/s 0.0 mm 10.8° 1023.5 hPa 2.0 m/s 0.0 mm 10.5° 1022.9 hPa 2.7 m/s
08:00 13.5° 1024.3 hPa 2.9 m/s 0.0 mm 13.1° 1021.8 hPa 3.4 m/s 46.4 mm 13.6° 1024.7 hPa 2.7 m/s 0.0 mm 13.5° 1024.4 hPa 2.6 m/s 0.0 mm 12.8° 1023.6 hPa 3.7 m/s
11:00 16.3° 1024.0 hPa 3.3 m/s 0.0 mm 17.5° 1021.3 hPa 4.0 m/s 46.4 mm 16.8° 1024.5 hPa 2.9 m/s 0.0 mm 16.1° 1024.1 hPa 3.0 m/s 16.6° 1023.3 hPa 3.8 m/s
14:00 18.7° 1023.6 hPa 3.7 m/s 0.0 mm 19.7° 1020.3 hPa 4.2 m/s 46.4 mm 19.2° 1024.4 hPa 3.3 m/s 0.0 mm 18.6° 1023.7 hPa 3.5 m/s 19.1° 1022.9 hPa 3.7 m/s
17:00 19.5° 1022.5 hPa 4.0 m/s 0.0 mm 21.3° 1019.4 hPa 4.5 m/s 46.4 mm 19.7° 1023.0 hPa 3.9 m/s 0.0 mm 19.0° 1022.9 hPa 4.0 m/s 19.4° 1021.7 hPa 4.7 m/s
20:00 19.5° 1021.8 hPa 4.4 m/s 0.0 mm 21.1° 1019.0 hPa 4.7 m/s 46.4 mm 19.4° 1022.4 hPa 4.3 m/s 0.0 mm 19.3° 1022.0 hPa 4.4 m/s 18.6° 1021.3 hPa 4.5 m/s
23:00 15.9° 1022.9 hPa 4.6 m/s 6.4 mm 15.9° 1022.9 hPa 4.6 m/s 15.3° 1022.3 hPa 4.8 m/s 6.4 mm
 05:19     22:05    Daglengte: 16:46 Zondag 23 Jun
02:00 14.1° 1023.3 hPa 4.7 m/s 6.4 mm 14.2° 1023.4 hPa 4.7 m/s 13.4° 1022.0 hPa 4.6 m/s 6.4 mm
05:00 14.6° 1023.1 hPa 4.2 m/s 6.4 mm 14.8° 1023.2 hPa 4.2 m/s 12.7° 1021.6 hPa 3.8 m/s 6.4 mm
08:00 15.4° 1023.0 hPa 3.8 m/s 6.4 mm 15.4° 1023.1 hPa 3.8 m/s 15.6° 1021.5 hPa 3.8 m/s 6.4 mm
11:00 19.4° 1022.7 hPa 4.0 m/s 6.4 mm 19.4° 1022.8 hPa 4.0 m/s 20.0° 1022.1 hPa 3.8 m/s 6.4 mm
14:00 23.3° 1022.4 hPa 4.2 m/s 6.4 mm 23.3° 1022.5 hPa 4.2 m/s 22.8° 1021.7 hPa 4.4 m/s 6.4 mm
17:00 23.3° 1021.7 hPa 3.8 m/s 6.4 mm 23.3° 1021.8 hPa 3.8 m/s 23.7° 1020.7 hPa 4.5 m/s 6.4 mm
20:00 23.2° 1021.0 hPa 3.5 m/s 6.4 mm 23.3° 1021.0 hPa 3.3 m/s 22.2° 1020.7 hPa 5.4 m/s 6.4 mm
23:00 20.8° 1021.9 hPa 4.6 m/s 6.4 mm 21.0° 1021.9 hPa 4.4 m/s 18.9° 1021.7 hPa 5.9 m/s 6.4 mm
 05:19     22:05    Daglengte: 16:46 Maandag 24 Jun
02:00 18.6° 1022.7 hPa 5.6 m/s 6.4 mm 18.7° 1022.8 hPa 5.6 m/s 17.6° 1021.4 hPa 5.0 m/s 6.4 mm
05:00 18.3° 1022.5 hPa 5.2 m/s 6.4 mm 18.5° 1022.6 hPa 5.3 m/s 16.7° 1020.8 hPa 4.5 m/s 6.4 mm
08:00 18.3° 1022.4 hPa 5.0 m/s 6.4 mm 18.3° 1022.5 hPa 5.0 m/s 18.5° 1021.2 hPa 4.5 m/s 6.4 mm
11:00 21.7° 1022.2 hPa 4.6 m/s 6.4 mm 21.6° 1022.3 hPa 4.7 m/s 22.5° 1021.6 hPa 4.6 m/s 6.4 mm
14:00 25.0° 1022.0 hPa 4.3 m/s 6.4 mm 24.9° 1022.1 hPa 4.3 m/s 26.0° 1021.2 hPa 4.5 m/s 6.4 mm
17:00 25.1° 1021.2 hPa 4.2 m/s 6.4 mm 24.9° 1021.2 hPa 4.2 m/s 27.1° 1020.7 hPa 4.8 m/s 6.4 mm
20:00 25.0° 1020.4 hPa 4.2 m/s 6.4 mm 25.0° 1020.4 hPa 4.1 m/s 25.1° 1020.3 hPa 5.1 m/s 6.4 mm
23:00 22.8° 1021.3 hPa 4.7 m/s 6.4 mm 23.0° 1021.2 hPa 4.7 m/s 21.2° 1021.7 hPa 5.1 m/s 6.4 mm
 05:20     22:05    Daglengte: 16:45 Dinsdag 25 Jun
02:00 20.9° 1022.1 hPa 5.1 m/s 6.4 mm 21.0° 1022.1 hPa 5.2 m/s 19.3° 1021.6 hPa 4.1 m/s 6.4 mm
05:00 20.5° 1021.9 hPa 4.5 m/s 6.4 mm 20.7° 1022.0 hPa 4.5 m/s 18.6° 1021.1 hPa 4.3 m/s 6.4 mm
08:00 20.4° 1021.7 hPa 4.0 m/s 6.4 mm 20.4° 1021.8 hPa 3.9 m/s 20.3° 1021.0 hPa 4.8 m/s 6.4 mm
11:00 24.0° 1021.5 hPa 4.3 m/s 6.4 mm 23.9° 1021.5 hPa 4.2 m/s 24.6° 1021.1 hPa 4.8 m/s 6.4 mm
14:00 27.4° 1021.2 hPa 4.7 m/s 6.4 mm 27.4° 1021.2 hPa 4.6 m/s 27.9° 1020.9 hPa 5.3 m/s 6.4 mm
17:00 27.6° 1020.6 hPa 3.8 m/s 6.4 mm 27.5° 1020.5 hPa 3.7 m/s 28.9° 1020.7 hPa 5.4 m/s 6.4 mm
20:00 27.5° 1019.9 hPa 3.0 m/s 6.4 mm 27.6° 1019.9 hPa 2.8 m/s 26.2° 1020.4 hPa 5.1 m/s 6.4 mm
23:00 24.8° 1020.3 hPa 3.6 m/s 6.4 mm 25.1° 1020.2 hPa 3.5 m/s 22.0° 1021.7 hPa 4.1 m/s 6.4 mm
 05:20     22:05    Daglengte: 16:45 Woensdag 26 Jun
02:00 22.4° 1020.6 hPa 4.3 m/s 6.4 mm 22.6° 1020.5 hPa 4.3 m/s 20.0° 1021.7 hPa 4.1 m/s 6.4 mm
05:00 22.1° 1020.3 hPa 4.1 m/s 6.4 mm 22.4° 1020.1 hPa 4.2 m/s 19.3° 1021.5 hPa 3.1 m/s 6.4 mm
08:00 22.1° 1020.0 hPa 4.0 m/s 6.4 mm 22.2° 1019.8 hPa 4.0 m/s 21.2° 1021.7 hPa 3.5 m/s 6.4 mm
11:00 25.7° 1019.5 hPa 4.6 m/s 6.4 mm 25.8° 1019.3 hPa 4.6 m/s 25.1° 1021.7 hPa 4.1 m/s 6.4 mm
14:00 29.2° 1019.1 hPa 5.1 m/s 6.4 mm 29.3° 1018.9 hPa 5.2 m/s 27.9° 1021.0 hPa 4.5 m/s 6.4 mm
17:00 29.8° 1018.0 hPa 3.8 m/s 6.4 mm 29.9° 1017.8 hPa 3.8 m/s 28.8° 1019.9 hPa 4.4 m/s 6.4 mm
20:00 30.1° 1017.0 hPa 2.6 m/s 6.4 mm 30.4° 1016.8 hPa 2.4 m/s 26.9° 1019.0 hPa 5.3 m/s 6.4 mm
 05:21     22:05    Daglengte: 16:44 Donderdag 27 Jun
02:00 23.2° 1016.2 hPa 3.3 m/s 6.4 mm 23.4° 1016.0 hPa 3.2 m/s 20.4° 1018.3 hPa 5.0 m/s 6.4 mm
08:00 23.7° 1015.0 hPa 2.6 m/s 6.4 mm 24.0° 1014.9 hPa 2.5 m/s 20.3° 1016.5 hPa 3.8 m/s 6.4 mm
14:00 31.7° 1014.6 hPa 1.2 m/s 6.4 mm 32.0° 1014.5 hPa 1.2 m/s 28.3° 1015.5 hPa 1.7 m/s 6.4 mm
20:00 28.4° 1012.8 hPa 2.5 m/s 6.4 mm 28.6° 1012.6 hPa 2.4 m/s 25.7° 1014.4 hPa 3.1 m/s 6.4 mm
 05:21     22:05    Daglengte: 16:44 Vrijdag 28 Jun
02:00 24.1° 1012.5 hPa 2.7 m/s 7.0 mm 24.5° 1012.3 hPa 2.7 m/s 19.2° 1014.9 hPa 3.2 m/s 7.0 mm
08:00 21.8° 1013.6 hPa 5.1 m/s 7.9 mm 22.0° 1013.6 hPa 5.2 m/s 19.6° 1014.0 hPa 3.5 m/s 7.9 mm
14:00 24.7° 1015.4 hPa 5.1 m/s 8.2 mm 24.9° 1015.4 hPa 5.0 m/s 22.6° 1014.9 hPa 6.4 m/s 8.2 mm
20:00 21.7° 1014.4 hPa 2.9 m/s 8.2 mm 22.0° 1014.3 hPa 2.8 m/s 18.9° 1015.2 hPa 4.5 m/s 8.2 mm
 05:22     22:05    Daglengte: 16:43 Zaterdag 29 Jun
02:00 18.3° 1013.9 hPa 2.8 m/s 8.2 mm 18.6° 1013.8 hPa 2.8 m/s 14.7° 1015.4 hPa 2.2 m/s 8.2 mm
08:00 16.8° 1014.0 hPa 4.0 m/s 8.2 mm 16.8° 1014.0 hPa 4.0 m/s 8.2 mm
14:00 22.0° 1015.6 hPa 1.3 m/s 0.0 mm
20:00 21.0° 1014.8 hPa 1.3 m/s 0.0 mm
 05:23     22:04    Daglengte: 16:41 Zondag 30 Jun
02:00 16.3° 1014.8 hPa 0.8 m/s 0.3 mm
08:00 17.0° 1014.1 hPa 1.4 m/s 0.6 mm
14:00 21.7° 1014.1 hPa 2.6 m/s 0.7 mm
20:00 19.8° 1014.0 hPa 3.3 m/s 0.8 mm
 05:23     22:04    Daglengte: 16:41 Maandag 01 Jul
02:00 15.4° 1014.6 hPa 0.8 m/s 1.0 mm
08:00 16.2° 1014.2 hPa 1.4 m/s 1.6 mm
14:00 20.2° 1014.0 hPa 3.4 m/s 0.6 mm
20:00 19.2° 1013.1 hPa 3.1 m/s 0.9 mm
 05:24     22:04    Daglengte: 16:40 Dinsdag 02 Jul
02:00 15.3° 1013.3 hPa 2.9 m/s 0.7 mm
08:00 15.9° 1013.0 hPa 3.3 m/s 0.3 mm
14:00 19.5° 1013.3 hPa 4.3 m/s 0.7 mm
20:00 18.9° 1013.1 hPa 3.3 m/s 0.5 mm
 05:25     22:03    Daglengte: 16:38 Woensdag 03 Jul
02:00 15.0° 1013.3 hPa 2.2 m/s 0.7 mm
08:00 16.1° 1013.1 hPa 2.1 m/s 0.4 mm
14:00 19.4° 1013.5 hPa 3.7 m/s 1.4 mm
20:00 18.5° 1013.9 hPa 2.8 m/s 0.8 mm
 05:26     22:03    Daglengte: 16:37 Donderdag 04 Jul
02:00 14.7° 1014.6 hPa 1.2 m/s 0.5 mm
08:00 15.7° 1014.9 hPa 1.9 m/s 0.8 mm
14:00 19.7° 1015.4 hPa 2.9 m/s 0.6 mm
20:00 18.9° 1015.3 hPa 2.5 m/s 0.8 mm
FMI Hirlam - 7.5 km EWN WRFDA - 12 km DWD ICON - 7 km GFS - 25 km Basiskaart






























































Updatetijd (Europe/Amsterdam) Resolutie Lengte Stap
FMI Hirlam 19:00, 01:00, 07:00, 13:00 7.5 km 49h 1h
EWN WRFDA 16:00, 22:00, 04:00, 10:00 12 km 73h 1h
DWD ICON 17:45, 23:45, 05:45, 11:45 7 km 75h 1h
GFS 14:30, 20:30, 02:30, 08:30 25 km 237h 3h
30+ mm
25-30 mm
20-25 mm
15-20 mm
10-15 mm
6-10 mm
4-6 mm
2-4 mm
1-2 mm
0.5-1 mm
0.2-0.5 mm
0.1-0.2 mm
30+ mm
25-30 mm
20-25 mm
15-20 mm
10-15 mm
6-10 mm
4-6 mm
2-4 mm
1-2 mm
0.5-1 mm
0.2-0.5 mm
0.1-0.2 mm
Sneeuwval
Natte sneeuw
Hagel
Vorst
30+ mm
25-30 mm
20-25 mm
15-20 mm
10-15 mm
6-10 mm
4-6 mm
2-4 mm
1-2 mm
0.5-1 mm
0.2-0.5 mm
0.1-0.2 mm
Sneeuwval
Natte sneeuw
Hagel
Vorst
Onweer
50 mm
40 mm
30 mm
26 mm
22 mm
18 mm
14 mm
10 mm
9 mm
8 mm
7 mm
6 mm
5 mm
4.5 mm
4 mm
3.5 mm
3 mm
2.5 mm
2 mm
1.5 mm
1 mm
0.8 mm
0.6 mm
0.4 mm
0.2 mm
0.05 mm
35°
30°
25°
20°
15°
10°
-5°
-10°
-15°
-20°
-25°
-30°
-35°
33> m/s
29 m/s
25 m/s
21 m/s
17 m/s
14 m/s
11 m/s
8 m/s
5 m/s
3 m/s
0 m/s
2600 J/kg
2400 J/kg
2200 J/kg
2000 J/kg
1800 J/kg
1600 J/kg
1400 J/kg
1200 J/kg
1000 J/kg
800 J/kg
600 J/kg
400 J/kg
200 J/kg
70 dBZ
65 dBZ
60 dBZ
55 dBZ
50 dBZ
45 dBZ
40 dBZ
35 dBZ
30 dBZ
25 dBZ
20 dBZ
15 dBZ
10 dBZ
5 dBZ
-1 K
-2 K
-3 K
-4 K
-5 K
-6 K
-7 K
-8 K
-9 K
950 m²/s²
900 m²/s²
850 m²/s²
800 m²/s²
750 m²/s²
700 m²/s²
650 m²/s²
600 m²/s²
550 m²/s²
500 m²/s²
450 m²/s²
400 m²/s²
350 m²/s²
300 m²/s²
250 m²/s²
200 m²/s²
150 m²/s²
100 m²/s²
46 m/s
44 m/s
42 m/s
40 m/s
38 m/s
36 m/s
34 m/s
32 m/s
30 m/s
28 m/s
26 m/s
24 m/s
22 m/s
20 m/s
16 m/s
12 m/s
8 m/s
4 m/s
30 m/s
28 m/s
26 m/s
24 m/s
22 m/s
20 m/s
18 m/s
16 m/s
14 m/s
12 m/s
10 m/s
8 m/s
6 m/s
4 m/s
2 m/s
3.0
2.8
2.6
2.4
2.2
2.0
1.8
1.6
1.4
1.2
1.0
0.8
0.6
0.4
0.2
15
14
13
12
11
10
9
8
7
6
5
4
3
2
1
90%
80%
70%
60%
50%
40%
30%
20%
10%
42
40
38
36
34
32
30
28
26
24
22
20
18
16
14
12
90+ cm
80-90 cm
70-80 cm
60-70 cm
50-60 cm
40-50 cm
30-40 cm
20-30 cm
10-20 cm
1-10 cm
Sneeuwval
Natte sneeuw
Regen
>120 mm
115 mm
110 mm
105 mm
100 mm
95 mm
90 mm
85 mm
80 mm
75 mm
70 mm
65 mm
60 mm
55 mm
50 mm
45 mm
45 mm
40 mm
35 mm
30 mm
25 mm
20 mm
15 mm
10 mm
5 mm
0.1 mm
960 hPa
880 hPa
800 hPa
720 hPa
640 hPa
560 hPa
584 gpdm
568 gpdm
552 gpdm
536 gpdm
520 gpdm
504 gpdm
488 gpdm
Extreem zwaar Noodweer Kans op onweer
15% 15% 5% 50% 15%

Dag




Kaart






35°
30°
25°
20°
15°
10°